This is the latest recevied weather packets stored in our database for station/object KD0KHX-10. If no packets are shown the sender has not sent any weather packets the latest 10 day(s).
| Time | Temp. | Humidity | Pressure | Rain* | Wind** | Luminosity | Snow |
|---|---|---|---|---|---|---|---|
| 1778089474 | 5.56° C | 76% | 1014.5 hPa | 0 mm | - | - | - |
| 1778088903 | 5.56° C | 74% | 1014.5 hPa | 0 mm | - | - | - |
| 1778088874 | 5.56° C | 74% | 1014.5 hPa | 0 mm | - | - | - |
| 1778088437 | 5.56° C | 71% | 1014.5 hPa | 0 mm | - | - | - |
| 1778088003 | 5.56° C | 70% | 1014.5 hPa | 0 mm | - | - | - |
| 1778087703 | 6.11° C | 66% | 1014.5 hPa | 0 mm | - | - | - |
| 1778087403 | 5.56° C | 65% | 1014.5 hPa | 0 mm | - | - | - |
| 1778087103 | 5.56° C | 65% | 1014.5 hPa | 0 mm | - | - | - |
| 1778087073 | 5.56° C | 65% | 1014.5 hPa | 0 mm | - | - | - |
| 1778086772 | 5.56° C | 62% | 1014.5 hPa | 0 mm | - | - | - |
| 1778086203 | 5.56° C | 60% | 1014.6 hPa | 0 mm | - | - | - |
| 1778085903 | 5.56° C | 58% | 1014.5 hPa | 0 mm | - | - | - |
| 1778085603 | 5.56° C | 57% | 1014.5 hPa | 0 mm | - | - | - |
| 1778085303 | 5° C | 56% | 1014.4 hPa | 0 mm | - | - | - |
| 1778085003 | 5° C | 55% | 1014.4 hPa | 0 mm | - | - | - |
| 1778084837 | 5° C | 54% | 1014.3 hPa | 0 mm | - | - | - |
| 1778084538 | 5.56° C | 52% | 1014.2 hPa | 0 mm | - | - | - |
| 1778084103 | 5° C | 51% | 1013.9 hPa | 0 mm | - | - | - |
| 1778083938 | 5° C | 51% | 1013.9 hPa | 0 mm | - | - | - |
| 1778083503 | 5° C | 49% | 1014 hPa | 0 mm | - | - | - |
| 1778083203 | 5° C | 50% | 1014 hPa | 0 mm | - | - | - |
| 1778083172 | 5° C | 50% | 1013.9 hPa | 0 mm | - | - | - |
| 1778082603 | 5° C | 48% | 1013.7 hPa | 0 mm | - | - | - |
| 1778082572 | 5° C | 48% | 1013.7 hPa | 0 mm | - | - | - |
| 1778082003 | 5° C | 47% | 1013.7 hPa | 0 mm | - | - | - |
* Rain latest hour (hover to see other rain measurements)
** Current wind speed in m/s (hover to see current wind gust speed)